Regional Weather Roundup
Issued by NWS

Home | Current Version | Previous Version | Text Only | Print | Product List | Glossary Off
Versions: 1 2 3 4 5 6 7 8 9 10 11 12 13 14 15 16 17 18 19 20 21 22 23 24 25 26 27 28 29 30 31 32 33 34 35 36 37 38 39 40 41 42 43 44 45 46 47 48 49 50

000
ASUS43 KLMK 272202
RWRKY
KENTUCKY REGIONAL WEATHER ROUNDUP
NATIONAL WEATHER SERVICE LOUISVILLE KY
600 PM EDT TUE SEP 27 2016

NOTE "FAIR" INDICATES FEW OR NO CLOUDS BELOW 12,000 FEET
WITH NO SIGNIFICANT WEATHER AND/OR OBSTRUCTIONS TO VISIBILITY.

KYZ001>023-026-027-061>063-070>075-272300-
WESTERN AND SOUTH CENTRAL KENTUCKY

CITY           SKY/WX    TMP DP  RH WIND       PRES   REMARKS
PADUCAH        SUNNY     78  45  30 W9        29.91F
HENDERSON      SUNNY     79  45  29 W13       29.88S
OWENSBORO      NOT AVBL
HOPKINSVILLE   SUNNY     75  47  36 SW10      29.92F
BOWLING GREEN  SUNNY     76  40  27 W5        29.92F
GLASGOW        NOT AVBL
$$

KYZ024-025-028>034-038-045-046-053-272300-
NORTH CENTRAL KENTUCKY

CITY           SKY/WX    TMP DP  RH WIND       PRES   REMARKS
LOUISVILLE/SDF MOSUNNY   76  42  29 SW12      29.88F
LOUISVILLE/LOU SUNNY     75  44  33 SW9G17    29.88F
FORT KNOX      SUNNY     74  46  36 SW10      29.88F
$$

KYZ035>037-039>044-047>052-055>060-089>105-272300-
NORTHEAST KENTUCKY

CITY           SKY/WX    TMP DP  RH WIND       PRES   REMARKS
LEXINGTON      SUNNY     74  38  27 W10       29.90F
COVINGTON      MOSUNNY   73  45  36 SW10G22   29.86S
FRANKFORT      SUNNY     74  43  32 SW8       29.89S
$$

KYZ054-064>069-076>088-106>120-272300-
SOUTHEAST KENTUCKY

CITY           SKY/WX    TMP DP  RH WIND       PRES   REMARKS
JACKSON        SUNNY     72  44  36 CALM      29.92F
LONDON         SUNNY     74  35  24 W8        29.92F
SOMERSET       SUNNY     72  41  33 W7        29.93F
MIDDLESBORO    SUNNY     76  41  28 N6        29.92S
MONTICELLO     CLEAR     75  43  31 W13       29.95S
$$




USA.gov is the U.S. government's official web portal to all federal, state and local government web resources and services.